TIANMU-1 05

Last updated on Wed Sep 17 2025 00:02:23 GMT+0000 (Coordinated Universal Time)

1 55975U 23039C 25259.54555398 .00012932 00000+0 35511-3 0 9999 2 55975 97.5070 59.7271 0003891 43.2997 316.8553 15.37370047138636
UTC large
Height (km)
Speed (km/s)
/
Latitude / Longitude
Inclination (degrees)
Orbital Period (minutes)
Azimuth
Elevation
Range (km)
Doppler Factor

Next 0 passes for location: London (51.5072 / 0.1276)

Sorry there are no passes over London.